sat.trackr.live / text

‹ back to catalog

STARLINK-1403

NORAD 45701 · 2020-035AW

PAYLOAD ACTIVE UNKNOWN

§ Identity

Operator
Country
US
Launch date
2020-06-04
Launch site
AFETR
Launch vehicle
Mass (kg)
RCS (m²)

Purposes: comms

External: N2YO · Heavens-Above · Gunter

§ Orbital elements

Epoch: 2026-09-18T07:04:09.361056Z

Period
93.36 min
Inclination
53.1507°
Eccentricity
0.0002921
Mean motion
15.42466445 rev/d
Perigee alt
436.8 km
Apogee alt
440.8 km
Semi-major
6,817.0 km
B*
1.1390e-3
RAAN
215.5810°
Arg perigee
80.7857°
Mean anomaly
279.3479°
Rev number
34,872

§ Raw data

STARLINK-14031 45701U 20035AW  26261.29455279  .00049994  00000+0  11390-2 0  99972 45701  53.1507 215.5810 0002921  80.7857 279.3479 15.42466445348727

JSON: /api/v1/satellites/45701 · /tle

For live sub-satellite position, see the globe view (requires WebGL).

§ Visibility from observer

Set your observer location to see the next 7 days of passes ≥ 10°. The values pass through the URL so the page stays shareable.

No JS? Fill the form by hand. The geolocation button needs JavaScript.